TimeEDT,TemperatureF,Dew PointF,Humidity,Sea Level PressureIn,VisibilityMPH,Wind Direction,Wind SpeedMPH,Gust SpeedMPH,PrecipitationIn,Events,Conditions,WindDirDegrees,DateUTC
12:15 AM,44.2,44.1,99,30.07,0.5,Calm,Calm,-,N/A,Fog,Fog,0,2013-10-21 04:15:00
12:35 AM,45.0,44.6,99,30.06,10.0,Calm,Calm,-,N/A,,Clear,0,2013-10-21 04:35:00
12:55 AM,44.1,43.2,97,30.06,10.0,Calm,Calm,-,N/A,,Clear,0,2013-10-21 04:55:00
1:15 AM,44.2,43.5,97,30.06,10.0,Calm,Calm,-,N/A,,Clear,0,2013-10-21 05:15:00
1:35 AM,44.2,43.5,97,30.06,10.0,Calm,Calm,-,N/A,,Clear,0,2013-10-21 05:35:00
1:55 AM,44.2,43.0,95,30.06,10.0,Calm,Calm,-,N/A,,Clear,0,2013-10-21 05:55:00
2:15 AM,43.2,42.6,98,30.06,10.0,Calm,Calm,-,N/A,,Clear,0,2013-10-21 06:15:00
2:35 AM,44.2,43.7,98,30.06,10.0,Calm,Calm,-,N/A,,Clear,0,2013-10-21 06:35:00
2:55 AM,42.6,42.1,98,30.06,10.0,Calm,Calm,-,N/A,,Clear,0,2013-10-21 06:55:00
3:15 AM,42.6,41.7,97,30.06,10.0,Calm,Calm,-,N/A,,Clear,0,2013-10-21 07:15:00
3:35 AM,42.6,41.9,97,30.06,10.0,Calm,Calm,-,N/A,,Clear,0,2013-10-21 07:35:00
3:55 AM,43.2,42.6,98,30.06,10.0,Calm,Calm,-,N/A,,Clear,0,2013-10-21 07:55:00
4:15 AM,42.3,41.9,99,30.06,10.0,Calm,Calm,-,N/A,,Clear,0,2013-10-21 08:15:00
4:35 AM,42.6,41.4,95,30.06,10.0,Calm,Calm,-,N/A,,Clear,0,2013-10-21 08:35:00
4:55 AM,42.3,42.1,99,30.07,10.0,Calm,Calm,-,N/A,,Clear,0,2013-10-21 08:55:00
5:15 AM,41.9,41.5,99,30.07,10.0,Calm,Calm,-,N/A,,Clear,0,2013-10-21 09:15:00
5:35 AM,41.7,40.6,96,30.07,10.0,Calm,Calm,-,N/A,,Clear,0,2013-10-21 09:35:00
5:55 AM,41.7,40.6,96,30.08,10.0,Calm,Calm,-,N/A,,Clear,0,2013-10-21 09:55:00
6:15 AM,41.7,41.0,97,30.08,10.0,Calm,Calm,-,N/A,,Clear,0,2013-10-21 10:15:00
6:35 AM,41.4,41.0,99,30.08,10.0,Calm,Calm,-,N/A,,Clear,0,2013-10-21 10:35:00
6:55 AM,42.1,40.6,95,30.08,10.0,Calm,Calm,-,N/A,,Scattered Clouds,0,2013-10-21 10:55:00
7:15 AM,42.1,41.0,96,30.08,10.0,Calm,Calm,-,N/A,,Scattered Clouds,0,2013-10-21 11:15:00
7:35 AM,42.1,41.4,97,30.09,10.0,Calm,Calm,-,N/A,,Mostly Cloudy,0,2013-10-21 11:35:00
7:55 AM,42.8,41.4,95,30.09,10.0,Calm,Calm,-,N/A,,Mostly Cloudy,0,2013-10-21 11:55:00
8:15 AM,43.0,42.1,97,30.10,10.0,Calm,Calm,-,N/A,,Scattered Clouds,0,2013-10-21 12:15:00
8:35 AM,41.9,41.2,97,30.10,10.0,Calm,Calm,-,N/A,,Clear,0,2013-10-21 12:35:00
8:55 AM,46.6,45.9,97,30.11,10.0,Calm,Calm,-,N/A,,Scattered Clouds,0,2013-10-21 12:55:00
9:15 AM,49.5,47.5,93,30.11,10.0,Calm,Calm,-,N/A,,Mostly Cloudy,0,2013-10-21 13:15:00
9:35 AM,51.1,48.2,90,30.12,10.0,Calm,Calm,-,N/A,,Overcast,0,2013-10-21 13:35:00
9:55 AM,51.6,47.7,86,30.12,10.0,Calm,Calm,-,N/A,,Mostly Cloudy,0,2013-10-21 13:55:00
10:15 AM,52.7,48.6,86,30.12,10.0,Calm,Calm,-,N/A,,Scattered Clouds,0,2013-10-21 14:15:00
10:35 AM,55.6,49.6,80,30.12,10.0,Calm,Calm,-,N/A,,Mostly Cloudy,0,2013-10-21 14:35:00
10:55 AM,59.0,50.0,72,30.12,10.0,Calm,Calm,-,N/A,,Scattered Clouds,0,2013-10-21 14:55:00
11:15 AM,61.5,50.4,67,30.12,10.0,Calm,Calm,-,N/A,,Clear,0,2013-10-21 15:15:00
11:35 AM,64.2,51.6,64,30.11,10.0,Calm,Calm,-,N/A,,Clear,0,2013-10-21 15:35:00
11:55 AM,66.9,52.3,59,30.11,10.0,Calm,Calm,-,N/A,,Clear,0,2013-10-21 15:55:00
12:15 PM,69.3,52.7,56,30.10,10.0,Calm,Calm,-,N/A,,Clear,0,2013-10-21 16:15:00
12:35 PM,71.2,53.4,53,30.10,10.0,Calm,Calm,-,N/A,,Clear,0,2013-10-21 16:35:00
12:55 PM,71.2,54.5,55,30.09,10.0,Calm,Calm,-,N/A,,Clear,0,2013-10-21 16:55:00
1:15 PM,71.6,54.7,55,30.09,10.0,Calm,Calm,-,N/A,,Scattered Clouds,0,2013-10-21 17:15:00
1:55 PM,73.4,54.9,52,30.07,10.0,WSW,3.5,-,N/A,,Scattered Clouds,250,2013-10-21 17:55:00
2:15 PM,72.0,55.0,55,30.05,10.0,Calm,Calm,-,N/A,,Clear,0,2013-10-21 18:15:00
2:35 PM,72.3,54.9,54,30.04,10.0,Calm,Calm,-,N/A,,Clear,0,2013-10-21 18:35:00
2:55 PM,71.8,54.7,55,30.04,10.0,NW,4.6,-,N/A,,Clear,320,2013-10-21 18:55:00
3:15 PM,71.6,55.8,57,30.04,10.0,WNW,3.5,-,N/A,,Clear,300,2013-10-21 19:15:00
3:35 PM,71.4,55.6,57,30.04,10.0,NW,5.8,-,N/A,,Clear,310,2013-10-21 19:35:00
3:55 PM,70.7,55.4,58,30.04,10.0,NW,5.8,-,N/A,,Clear,310,2013-10-21 19:55:00
4:15 PM,70.7,55.2,58,30.04,10.0,WNW,3.5,-,N/A,,Clear,300,2013-10-21 20:15:00
4:35 PM,70.0,55.6,60,30.03,10.0,Calm,Calm,-,N/A,,Clear,0,2013-10-21 20:35:00
4:55 PM,70.0,55.6,60,30.03,10.0,Calm,Calm,-,N/A,,Clear,0,2013-10-21 20:55:00
5:15 PM,69.6,56.5,63,30.03,10.0,Calm,Calm,-,N/A,,Clear,0,2013-10-21 21:15:00
5:35 PM,68.9,56.5,65,30.04,10.0,Calm,Calm,-,N/A,,Clear,0,2013-10-21 21:35:00
5:55 PM,67.1,58.8,75,30.03,10.0,Calm,Calm,-,N/A,,Mostly Cloudy,0,2013-10-21 21:55:00
6:15 PM,66.7,58.6,75,30.03,10.0,Calm,Calm,-,N/A,,Overcast,0,2013-10-21 22:15:00
6:35 PM,65.5,58.8,79,30.03,10.0,Calm,Calm,-,N/A,,Scattered Clouds,0,2013-10-21 22:35:00
6:55 PM,64.8,60.4,86,30.03,10.0,Calm,Calm,-,N/A,,Scattered Clouds,0,2013-10-21 22:55:00
7:15 PM,61.9,59.5,92,30.03,10.0,Calm,Calm,-,N/A,,Clear,0,2013-10-21 23:15:00
7:35 PM,61.3,59.2,93,30.03,10.0,Calm,Calm,-,N/A,,Clear,0,2013-10-21 23:35:00
7:55 PM,60.6,58.3,92,30.03,10.0,Calm,Calm,-,N/A,,Clear,0,2013-10-21 23:55:00
8:15 PM,59.9,58.3,94,30.03,10.0,Calm,Calm,-,N/A,,Clear,0,2013-10-22 00:15:00
8:35 PM,59.9,59.0,97,30.03,10.0,Calm,Calm,-,N/A,,Clear,0,2013-10-22 00:35:00
8:55 PM,59.9,57.9,93,30.03,10.0,Calm,Calm,-,N/A,,Clear,0,2013-10-22 00:55:00
9:15 PM,58.5,57.9,98,30.03,7.0,Calm,Calm,-,N/A,,Scattered Clouds,0,2013-10-22 01:15:00
9:35 PM,59.5,59.0,98,30.04,10.0,Calm,Calm,-,N/A,,Mostly Cloudy,0,2013-10-22 01:35:00
9:55 PM,59.2,58.6,98,30.04,10.0,Calm,Calm,-,N/A,,Mostly Cloudy,0,2013-10-22 01:55:00
10:15 PM,58.6,58.1,98,30.04,7.0,Calm,Calm,-,N/A,,Mostly Cloudy,0,2013-10-22 02:15:00
10:35 PM,59.2,58.3,97,30.05,10.0,Calm,Calm,-,N/A,,Mostly Cloudy,0,2013-10-22 02:35:00
10:55 PM,59.0,58.3,97,30.04,10.0,Calm,Calm,-,N/A,,Mostly Cloudy,0,2013-10-22 02:55:00
11:15 PM,59.4,58.1,96,30.04,10.0,Calm,Calm,-,N/A,,Overcast,0,2013-10-22 03:15:00
11:35 PM,59.5,58.3,96,30.03,10.0,Calm,Calm,-,N/A,,Overcast,0,2013-10-22 03:35:00
11:55 PM,59.4,58.3,96,30.04,10.0,Calm,Calm,-,N/A,,Overcast,0,2013-10-22 03:55:00